Retour au catalogue

CZ-2D R/B

ActifSSO
NORAD 37932·ROCKET BODY·🇨🇳 China

Lancé Nov 20, 2011 depuis Jiuquan Satellite Launch Center

Loading…

Prochains Passages (prochaines 24 heures)

TLE

FraisSource: Space-Track

Époque: Sep 14, 2026, 15:39 UTC

1 37932U 11068C   26257.65219932  .00000091  00000-0  60101-4 0  9991
2 37932  98.9001 214.0641 0036727   3.2417 169.4719 14.23046442769204

Suivez CZ-2D R/B en temps réel avec AllMySat

Download on the App Store